Location: Marcé
(47.5801°N, 0.3280°W)
Time: 04:21:20
(UTC+01:00)

Explorer 11/Cluster Stage 4 - Pass Details

Date: 06 December 2021
Orbit: 467 x 1255 km, 28.8° (Epoch: 26 January)

Event Time Altitude Azimuth Distance (km) Brightness Sun altitude
Rises 03:57:08 0° 232° (SW) 3,492 - -45.5°
Reaches altitude 10° 04:00:42 10° 211° (SSW) 2,716 - -45.0°
Maximum altitude 04:04:27 16° 176° (S) 2,473 - -44.4°
Drops below altitude 10° 04:08:32 10° 143° (SE) 3,010 - -43.7°
Exits shadow 04:08:33 10° 143° (SE) 3,013 9.7 -43.7°
Sets 04:12:50 0° 124° (ESE) 4,086 10.7 -43.0°
